Regional Weather Roundup
Issued by NWS Grand Forks, ND

Home | Current Version | Previous Version | Text Only | Print | Product List | Glossary On
Versions: 1 2 3 4 5 6 7 8 9 10 11 12 13 14 15 16 17 18 19 20 21 22 23 24 25 26 27 28 29 30 31 32 33 34 35 36 37 38 39 40 41 42 43 44 45 46 47 48 49 50
000
ASUS43 KFGF 272331
RWRFGF
PRAIRIE TO PINES  WEATHER ROUNDUP
NATIONAL WEATHER SERVICE EASTERN NORTH DAKOTA/GRAND FORKS ND
600 PM CDT SAT AUG 27 2016

 **SATELLITE DATA USED TO AUGMENT SKY COVER AT AUTOMATED STATIONS**
 *****  WEATHER ACROSS EASTERN NORTH DAKOTA  *****

CITY           SKY/WX    TMP DP  RH WIND       PRES   REMARKS
GRAND FORKS    PTSUNNY   68  62  81 S12       29.90R
GRAND FRKS AFB CLOUDY    67  59  74 S13       29.91R
GRAND FRKS NWS   N/A     66 N/A N/A S10         N/A
DEVILS LAKE    NOT AVBL
FARGO          MOSUNNY   73  59  61 SE14G22   29.90S
WAHPETON ARPT  CLOUDY    72  55  56 SE14G20   29.94S
$$

 ***** WEATHER ACROSS CENTRAL AND WESTERN NORTH DAKOTA  *****

CITY           SKY/WX    TMP DP  RH WIND       PRES   REMARKS
BISMARCK       SUNNY     79  51  37 VRB3      29.87F
MINOT          SUNNY     80  44  27 SE6       29.84S
JAMESTOWN      MOSUNNY   76  61  59 SE5       29.88S
MINOT AFB      SUNNY     78  43  28 S5        29.83S
GARRISON         N/A     78  49  35 SW3       29.86S
WILLISTON      SUNNY     83  43  24 SE9       29.80F
DICKINSON      SUNNY     78  37  22 SW13      29.85S
HETTINGER      MOSUNNY   81  45  28 S9        29.89F
$$

 *****  OTHER AIRPORT OBSERVATIONS IN OUR AREA  *****

CITY           SKY/WX    TMP DP  RH WIND       PRES   REMARKS
WALHALLA       FAIR      68  68 100 SE9       29.89S
GRAFTON AIRPOR FAIR      64  61  88 VRB3G12   29.92R
VALLEY CITY AR FAIR      73  64  73 S7        29.93R
CANDO          FAIR      75  48  38 SW8       29.91S
CAVALIER APRT  FAIR      68  61  77 S8        29.89S
GWINNER        FAIR      75  63  64 SW12      29.92S
SHEYENNE NWR     N/A     77  60  54 W9        29.95S
ROLLA          FAIR      72  48  43 W7        29.90S
 ***** THE ABOVE OBSERVATIONS ARE NON NWS ARE NOT QUALITY
       CONTROLLED AND MAY MIS-REPORT RAIN FOR SNOW...
$$

  *****  WEATHER ACROSS NORTHERN MINNESOTA  *****

CITY           SKY/WX    TMP DP  RH WIND       PRES   REMARKS
FLAG ISLAND    CLOUDY    63  55  77 CALM      29.93F HAZE
WARROAD        PTSUNNY   63  57  82 SE3       29.94F
ROSEAU         CLOUDY    64  57  77 S7        29.93F
HALLOCK        CLOUDY    66  63  88 S10       29.88F
THF RVR FALLS  MOSUNNY   65  59  81 S6        29.95R
BAUDETTE       CLOUDY    60  57  89 VRB3      29.96S
WASKISH        CLOUDY    57  55  94 CALM      29.98
CROOKSTON      CLOUDY    64  61  88 S8        29.94R
STEPHEN NDAWN    N/A     66  63  88 SE7         N/A
GREENBUSH NDAW   N/A     64  59  82 S7          N/A
$$
  *****  WEATHER ACROSS CENTRAL AND WEST MINNESOTA  *****

CITY           SKY/WX    TMP DP  RH WIND       PRES   REMARKS
FOSSTON        MOSUNNY   61  57  88 SE3       29.97R
BEMIDJI        PTSUNNY   60  55  85 SE6       29.99R
PARK RAPIDS    MOSUNNY   71  56  58 SW7       29.98S
ELBOW LAKE     FAIR      69  60  71 SE9       29.98S
WADENA         MOSUNNY   68  57  68 SW5       29.98R
DETROIT LAKES  SUNNY     70  57  64 S9        29.97S
MOORHEAD       SUNNY     72  59  64 S13       29.93S
FERGUS FALLS   MOSUNNY   66  59  77 S10       29.97F
MORRIS MN      SUNNY     72  61  68 SE7       29.97S
STAPLES        MOSUNNY   66  55  68 S5        29.99R
$$
  *****  WEATHER ELSEWHERE ACROSS MINNESOTA  *****

CITY           SKY/WX    TMP DP  RH WIND       PRES   REMARKS
DULUTH         CLOUDY    63  58  83 E7        30.02S
INTRNTL FALLS  LGT RAIN  57  55  93 S3        30.01R
ELY            CLOUDY    64  52  63 SE7       30.01F
CLOQUET        LGT RAIN  63  59  88 E3        30.02S
WHEATON        SUNNY     75  63  64 SE10      29.96S
BRAINERD       CLOUDY    66  58  75 S9        29.99F
HIBBING        HVY RAIN  54  52  93 N9G31     30.04R VSB 3/4
ALEXANDRIA     PTSUNNY   68  57  68 S5        30.02R
SAINT CLOUD    CLOUDY    63  62  97 CALM      30.01S
MINNEAPOLIS    CLOUDY    68  61  78 SW5       30.00S
$$

  *****  WEATHER ACROSS SOUTH DAKOTA  *****

CITY           SKY/WX    TMP DP  RH WIND       PRES   REMARKS
SIOUX FALLS    MOSUNNY   77  65  66 S8        29.98R
BROOKINGS      SUNNY     74  62  66 S9        29.97S
WATERTOWN      MOSUNNY   74  62  66 S9        29.96S
HURON          SUNNY     81  60  48 SE10      29.91F
SISSETON         N/A     74  62  66 S9        29.92S
ABERDEEN       SUNNY     78  61  55 S10       29.91S
MITCHELL       SUNNY     83  59  44 S10       29.93S
PIERRE         SUNNY     83  55  38 E10       29.87F
MOBRIDGE       MOSUNNY   81  50  33 SE10      29.87S
RAPID CITY     CLOUDY    83  45  26 SW13G21   29.88S
$$

  *****  SOME WEATHER IN NEARBY STATES *****

CITY           SKY/WX    TMP DP  RH WIND       PRES   REMARKS
GLASGOW MT     SUNNY     84  38  19 SW7       29.71F
GREAT FALLS MT CLOUDY    79  34  19 SW24G30   29.76R
CHEYENNE WY    SUNNY     78  34  20 VRB3      30.10S
SCOTTSBLUFF NE SUNNY     84  52  33 E13       29.97S
OMAHA NE       MOSUNNY   83  65  54 S9        29.97F
DES MOINES IA  PTSUNNY   82  68  62 SW6       29.99S
DAVENPORT IA   MOSUNNY   82  69  64 SW9       30.01S
CHICAGO IL     PTSUNNY   81  69  67 SW10      30.01R
EAU CLAIRE WI  CLOUDY    66  63  90 S5        30.01S
LA CROSSE WI   CLOUDY    71  65  81 SE6       30.01R
$$

  *****  SOME NATIONAL WEATHER *****

CITY           SKY/WX    TMP DP  RH WIND       PRES   REMARKS
LA GUARDIA NY  MOCLDY    84  56  38 SE10      30.17S
RALEIGH NC     CLOUDY    80  76  87 N5        30.08S THUNDER
ATLANTA GA     MOSUNNY   91  67  44 E8        30.04S HX  94
NEW ORLEANS LA CLOUDY    88  74  63 E7        29.91S THUNDER HX  96
OKLAHOMA CITY  CLOUDY    83  71  67 SW5       29.96F
ALBUQUERQUE NM CLOUDY    72  49  44 W28G37    30.16R THUNDER
SALT LAKE CITY MOSUNNY   88  29  12 N9G21     29.99F
LOS ANGELES CA SUNNY     72  58  61 W17       29.95F
BOISE ID       SUNNY     90  31  12 VRB7      29.87F
SEATTLE WA     PTSUNNY   70  54  56 SW18G24   29.91S
$$

*** WEATHER ACROSS MANITOBA...SASKATCHEWAN AND ONTARIO ***
                ***ONTARIO***

CITY           SKY/WX    TMP DP  RH WIND       PRES   REMARKS
GERALDTON      PTSUNNY   68  55  64 S6        30.06R
THUNDER BAY    PTSUNNY   64  54  68 E3        30.05F
SIOUX LOOKOUT  LGT RAIN  61  59  94 S5        29.98S
TORONTO        PTSUNNY   77  55  47 SE7       30.15F
BIG TROUT LK   MOSUNNY   73  54  49 S5        29.92R
PICKLE LAKE    PTSUNNY   70  50  49 SW5       29.98R
DRYDEN         PTSUNNY   61  59  94 CALM      29.98F
KENORA         CLOUDY    59  57  94 SE6       29.97R
$$
                *** MANITOBA***

CITY           SKY/WX    TMP DP  RH WIND       PRES   REMARKS
BRANDON        MOSUNNY   72  50  46 SW6       29.86S
DAUPHIN        MOSUNNY   73  55  53 S8        29.83S
ISLAND LAKE    TSTM      63  61  94 VRB2      29.86S
PILOT MOUND      N/A     73  46  38 NW3         N/A
THE PAS        MOSUNNY   66  54  63 SE6       29.81S
THOMPSON       PTSUNNY   70  54  56 VRB3      29.83S
WINNIPEG       PTSUNNY   70  59  68 S16G23    29.88S
LYNN LAKE      PTSUNNY   66  48  52 MISG      29.80R
CHURCHILL      PTSUNNY   66  50  55 S12       29.86S
GILLAM         MOSUNNY   70  55  60 NE6       29.86S
$$
                ***SASKATCHEWAN***

CITY           SKY/WX    TMP DP  RH WIND       PRES   REMARKS
ESTEVAN        CLOUDY    79  45  29 S5        29.81S
KINDERSLEY     PTSUNNY   75  54  46 SW6       29.58R
LLOYDMINSTER   CLOUDY    68  54  60 W8        29.59S
PRINCE ALBERT  PTSUNNY   72  50  46 SE15      29.69F
REGINA         MOSUNNY   79  43  27 S10G17    29.74F
YORKTON        SUNNY     72  46  40 S6        29.80F
N. BATTLEFORD  MOSUNNY   75  52  43 SE14G21   29.60F
LA RONGE       PTSUNNY   66  54  63 E8        29.73S
SASKATOON      PTSUNNY   79  50  36 SE22G28   29.65F
SWIFT CURRENT  SUNNY     81  43  26 SW16      29.64F
$$
NOTE: THESE ARE AUTOMATED STATIONS WITH LIMITED QUALITY CONTROL
      "FAIR" INDICATES FEW OR NO CLOUDS BELOW 12,000 FEET WITH NO
      SIGNIFICANT WEATHER AND/OR OBSTRUCTIONS TO VISIBILITY.
      SKY/WX - SKY CONDITION AND SIGNIFICANT WEATHER.
      TMP - AIR TEMPERATURE.    DP   - DEWPOINT TEMPERATURE.
      RH  - RELATIVE HUMIDITY.  PRES - PRESSURE.
      HX  - HEAT INDEX.         WCI  - WIND CHILL INDEX.
$




USA.gov is the U.S. government's official web portal to all federal, state and local government web resources and services.